2007-01-01 01:00:00,-1.66
2007-01-01 04:00:00,-2.32
2007-01-01 07:00:00,-2.91
2007-01-01 10:00:00,-6.59
2007-01-01 13:00:00,-5.09
2007-01-01 16:00:00,-7.49
2007-01-01 19:00:00,-5.20
2007-01-01 22:00:00,-4.68
2007-01-02 01:00:00,-6.52
2007-01-02 04:00:00,-6.42
2007-01-02 07:00:00,-6.62
2007-01-02 10:00:00,-9.42
2007-01-02 13:00:00,-9.56
2007-01-02 16:00:00,-10.65
2007-01-02 19:00:00,-5.89
2007-01-02 22:00:00,-8.07
2007-01-03 01:00:00,-6.03
2007-01-03 04:00:00,-2.86
2007-01-03 07:00:00,-3.98
2007-01-03 10:00:00,-5.01
2007-01-03 13:00:00,-5.72
2007-01-03 16:00:00,-7.42
2007-01-03 19:00:00,-7.97
2007-01-03 22:00:00,-8.87
2007-01-04 01:00:00,-9.85
2007-01-04 04:00:00,-13.55
2007-01-04 07:00:00,-12.79
2007-01-04 10:00:00,-9.81
2007-01-04 13:00:00,-9.46
2007-01-04 16:00:00,-9.98
2007-01-04 19:00:00,-9.81
2007-01-04 22:00:00,-11.89
2007-01-05 01:00:00,-10.14
2007-01-05 04:00:00,-8.94
2007-01-05 07:00:00,-8.90
2007-01-05 10:00:00,-6.24
2007-01-05 13:00:00,-5.82
2007-01-05 16:00:00,-5.06
2007-01-05 19:00:00,-7.87
2007-01-05 22:00:00,-9.98
2007-01-06 01:00:00,-9.35
2007-01-06 04:00:00,-9.60
2007-01-06 07:00:00,-11.16
2007-01-06 10:00:00,-10.49
2007-01-06 13:00:00,-9.35
2007-01-06 16:00:00,-6.92
2007-01-06 19:00:00,-2.81
2007-01-06 22:00:00,-3.19
2007-01-07 01:00:00,-2.32
2007-01-07 04:00:00,-3.40
2007-01-07 07:00:00,-4.57
2007-01-07 10:00:00,-5.59
2007-01-07 13:00:00,-6.82
2007-01-07 16:00:00,-5.47
2007-01-07 19:00:00,-5.35
2007-01-07 22:00:00,-5.76
2007-01-08 01:00:00,-5.12
2007-01-08 04:00:00,-10.22
2007-01-08 07:00:00,-9.15
2007-01-08 10:00:00,-8.07
2007-01-08 13:00:00,-9.38
2007-01-08 16:00:00,-5.80
2007-01-08 19:00:00,-8.34
2007-01-08 22:00:00,-7.99
2007-01-09 01:00:00,-7.42
2007-01-09 04:00:00,-3.26
2007-01-09 07:00:00,-4.46
2007-01-09 10:00:00,-6.13
2007-01-09 13:00:00,-6.85
2007-01-09 16:00:00,-6.28
2007-01-09 19:00:00,-6.79
2007-01-09 22:00:00,-6.97
2007-01-10 01:00:00,-6.08
2007-01-10 04:00:00,-6.40
2007-01-10 07:00:00,-3.79
2007-01-10 10:00:00,-6.09
2007-01-10 13:00:00,-7.75
2007-01-10 16:00:00,-9.57
2007-01-10 19:00:00,-9.44
2007-01-10 22:00:00,-10.62
2007-01-11 01:00:00,-11.30
2007-01-11 04:00:00,-11.32
2007-01-11 07:00:00,-11.30
2007-01-11 10:00:00,-15.60
2007-01-11 13:00:00,-14.24
2007-01-11 16:00:00,-12.95
2007-01-11 19:00:00,-9.60
2007-01-11 22:00:00,-8.32
2007-01-12 01:00:00,-8.12
2007-01-12 04:00:00,-10.85
2007-01-12 07:00:00,-8.69
2007-01-12 10:00:00,-8.78
2007-01-12 13:00:00,-13.99
2007-01-12 16:00:00,-4.59
2007-01-12 19:00:00,-6.92
2007-01-12 22:00:00,-9.34
2007-01-13 01:00:00,-8.70
2007-01-13 04:00:00,-6.14
2007-01-13 07:00:00,-6.26
2007-01-13 10:00:00,-6.46
2007-01-13 13:00:00,-7.08
2007-01-13 16:00:00,-8.01
2007-01-13 19:00:00,-8.37
2007-01-13 22:00:00,-7.91
2007-01-14 01:00:00,-8.57
2007-01-14 04:00:00,-11.14
2007-01-14 07:00:00,-8.65
2007-01-14 10:00:00,-8.80
2007-01-14 13:00:00,-7.50
2007-01-14 16:00:00,-8.20
2007-01-14 19:00:00,-5.95
2007-01-14 22:00:00,-6.69
2007-01-15 01:00:00,-6.86
2007-01-15 04:00:00,-8.78
2007-01-15 07:00:00,-11.63
2007-01-15 10:00:00,-7.90
2007-01-15 13:00:00,-8.29
2007-01-15 16:00:00,-10.20
2007-01-15 19:00:00,-11.05
2007-01-15 22:00:00,-10.97
2007-01-16 01:00:00,-6.86
2007-01-16 04:00:00,-7.70
2007-01-16 07:00:00,-7.66
2007-01-16 10:00:00,-9.07
2007-01-16 13:00:00,-7.13
2007-01-16 16:00:00,-4.97
2007-01-16 19:00:00,-5.20
2007-01-16 22:00:00,-5.62
2007-01-17 01:00:00,-4.54
2007-01-17 04:00:00,-3.48
2007-01-17 07:00:00,-3.42
2007-01-17 10:00:00,-6.22
2007-01-17 13:00:00,-4.46
2007-01-17 16:00:00,-6.88
2007-01-17 19:00:00,-8.53
2007-01-17 22:00:00,-9.63
2007-01-18 01:00:00,-9.65
2007-01-18 04:00:00,-13.06
2007-01-18 07:00:00,-11.23
2007-01-18 10:00:00,-10.81
2007-01-18 13:00:00,-10.97
2007-01-18 16:00:00,-10.85
2007-01-18 19:00:00,-10.64
2007-01-18 22:00:00,-11.55
2007-01-19 01:00:00,-10.97
2007-01-19 04:00:00,-10.81
2007-01-19 07:00:00,-10.97
2007-01-19 10:00:00,-10.97
2007-01-19 13:00:00,-11.88
2007-01-19 16:00:00,-15.15
2007-01-19 19:00:00,-14.05
2007-01-19 22:00:00,-19.60
2007-01-20 01:00:00,-14.07
2007-01-20 04:00:00,-14.56
2007-01-20 07:00:00,-12.29
2007-01-20 10:00:00,-13.66
2007-01-20 13:00:00,-14.32
2007-01-20 16:00:00,-16.68
2007-01-20 19:00:00,-19.21
2007-01-20 22:00:00,-15.31
2007-01-21 01:00:00,-19.89
2007-01-21 04:00:00,-16.71
2007-01-21 07:00:00,-13.26
2007-01-21 10:00:00,-13.88
2007-01-21 13:00:00,-13.39
2007-01-21 16:00:00,-13.68
2007-01-21 19:00:00,-13.49
2007-01-21 22:00:00,-12.13
2007-01-22 01:00:00,-11.01
2007-01-22 04:00:00,-14.41
2007-01-22 07:00:00,-11.76
2007-01-22 10:00:00,-14.69
2007-01-22 13:00:00,-17.09
2007-01-22 16:00:00,-17.54
2007-01-22 19:00:00,-14.55
2007-01-22 22:00:00,-10.03
2007-01-23 01:00:00,-10.33
2007-01-23 04:00:00,-9.87
2007-01-23 07:00:00,-13.25
2007-01-23 10:00:00,-9.97
2007-01-23 13:00:00,-12.46
2007-01-23 16:00:00,-12.01
2007-01-23 19:00:00,-13.59
2007-01-23 22:00:00,-14.73
2007-01-24 01:00:00,-13.99
2007-01-24 04:00:00,-15.93
2007-01-24 07:00:00,-18.24
2007-01-24 10:00:00,-13.49
2007-01-24 13:00:00,-10.88
2007-01-24 16:00:00,-9.07
2007-01-24 19:00:00,-9.29
2007-01-24 22:00:00,-7.79
2007-01-25 01:00:00,-6.57
2007-01-25 04:00:00,-7.66
2007-01-25 07:00:00,-6.42
2007-01-25 10:00:00,-3.32
2007-01-25 13:00:00,-2.25
2007-01-25 16:00:00,-3.55
2007-01-25 19:00:00,-3.57
2007-01-25 22:00:00,-5.28
2007-01-26 01:00:00,-7.35
2007-01-26 04:00:00,-9.31
2007-01-26 07:00:00,-10.06
2007-01-26 10:00:00,-11.05
2007-01-26 13:00:00,-9.07
2007-01-26 16:00:00,-10.14
2007-01-26 19:00:00,-13.10
2007-01-26 22:00:00,-13.61
2007-01-27 01:00:00,-15.07
2007-01-27 04:00:00,-16.34
2007-01-27 07:00:00,-16.55
2007-01-27 10:00:00,-16.28
2007-01-27 13:00:00,-16.13
2007-01-27 16:00:00,-15.06
2007-01-27 19:00:00,-16.26
2007-01-27 22:00:00,-15.69
2007-01-28 01:00:00,-14.72
2007-01-28 04:00:00,-15.89
2007-01-28 07:00:00,-13.99
2007-01-28 10:00:00,-13.08
2007-01-28 13:00:00,-12.40
2007-01-28 16:00:00,-12.67
2007-01-28 19:00:00,-11.76
2007-01-28 22:00:00,-11.47
2007-01-29 01:00:00,-11.39
2007-01-29 04:00:00,-11.63
2007-01-29 07:00:00,-11.80
2007-01-29 10:00:00,-11.32
2007-01-29 13:00:00,-11.12
2007-01-29 16:00:00,-9.94
2007-01-29 19:00:00,-9.52
2007-01-29 22:00:00,-9.01
2007-01-30 01:00:00,-11.30
2007-01-30 04:00:00,-13.45
2007-01-30 07:00:00,-15.60
2007-01-30 10:00:00,-18.65
2007-01-30 13:00:00,-16.68
2007-01-30 16:00:00,-15.29
2007-01-30 19:00:00,-15.06
2007-01-30 22:00:00,-17.13
2007-01-31 01:00:00,-15.14
2007-01-31 04:00:00,-14.93
2007-01-31 07:00:00,-12.95
2007-01-31 10:00:00,-9.40
2007-01-31 13:00:00,-7.13
2007-01-31 16:00:00,-5.78
2007-01-31 19:00:00,-6.82
2007-01-31 22:00:00,-4.19
2007-02-01 01:00:00,-4.17
2007-02-01 04:00:00,-4.79
2007-02-01 07:00:00,-4.48
2007-02-01 10:00:00,-4.85
2007-02-01 13:00:00,-5.51
2007-02-01 16:00:00,-7.15
2007-02-01 19:00:00,-8.75
2007-02-01 22:00:00,-7.25
2007-02-02 01:00:00,-7.93
2007-02-02 04:00:00,-2.28
2007-02-02 07:00:00,-1.87
2007-02-02 10:00:00,-2.54
2007-02-02 13:00:00,-3.03
2007-02-02 16:00:00,-4.24
2007-02-02 19:00:00,-3.32
2007-02-02 22:00:00,-2.54
2007-02-03 01:00:00,-2.37
2007-02-03 04:00:00,-3.61
2007-02-03 07:00:00,-4.56
2007-02-03 10:00:00,-4.68
2007-02-03 13:00:00,-5.55
2007-02-03 16:00:00,-7.11
2007-02-03 19:00:00,-9.18
2007-02-03 22:00:00,-10.00
2007-02-04 01:00:00,-9.50
2007-02-04 04:00:00,-13.08
2007-02-04 07:00:00,-14.67
2007-02-04 10:00:00,-17.00
2007-02-04 13:00:00,-16.59
2007-02-04 16:00:00,-16.73
2007-02-04 19:00:00,-17.61
2007-02-04 22:00:00,-14.32
2007-02-05 01:00:00,-15.10
2007-02-05 04:00:00,-16.79
2007-02-05 07:00:00,-13.66
2007-02-05 10:00:00,-16.01
2007-02-05 13:00:00,-20.03
2007-02-05 16:00:00,-16.67
2007-02-05 19:00:00,-14.73
2007-02-05 22:00:00,-16.75
2007-02-06 01:00:00,-17.04
2007-02-06 04:00:00,-13.08
2007-02-06 07:00:00,-11.42
2007-02-06 10:00:00,-10.90
2007-02-06 13:00:00,-15.94
2007-02-06 16:00:00,-14.77
2007-02-06 19:00:00,-14.09
2007-02-06 22:00:00,-12.66
2007-02-07 01:00:00,-11.36
2007-02-07 04:00:00,-15.85
2007-02-07 07:00:00,-14.81
2007-02-07 10:00:00,-14.72
2007-02-07 13:00:00,-15.32
2007-02-07 16:00:00,-15.15
2007-02-07 19:00:00,-13.61
2007-02-07 22:00:00,-16.01
2007-02-08 01:00:00,-15.18
2007-02-08 04:00:00,-17.13
2007-02-08 07:00:00,-13.32
2007-02-08 10:00:00,-11.00
2007-02-08 13:00:00,-8.24
2007-02-08 16:00:00,-10.68
2007-02-08 19:00:00,-11.53
2007-02-08 22:00:00,-8.86
2007-02-09 01:00:00,-10.17
2007-02-09 04:00:00,-9.86
2007-02-09 07:00:00,-9.20
2007-02-09 10:00:00,-8.76
2007-02-09 13:00:00,-8.70
2007-02-09 16:00:00,-8.41
2007-02-09 19:00:00,-10.43
2007-02-09 22:00:00,-12.86
2007-02-10 01:00:00,-13.90
2007-02-10 04:00:00,-13.00
2007-02-10 07:00:00,-12.42
2007-02-10 10:00:00,-9.84
2007-02-10 13:00:00,-10.36
2007-02-10 16:00:00,-10.06
2007-02-10 19:00:00,-10.15
2007-02-10 22:00:00,-9.94
2007-02-11 01:00:00,-10.23
2007-02-11 04:00:00,-10.64
2007-02-11 07:00:00,-10.31
2007-02-11 10:00:00,-10.23
2007-02-11 13:00:00,-10.15
2007-02-11 16:00:00,-10.56
2007-02-11 19:00:00,-10.50
2007-02-11 22:00:00,-11.95
2007-02-12 01:00:00,-12.85
2007-02-12 04:00:00,-15.80
2007-02-12 07:00:00,-14.59
2007-02-12 10:00:00,-13.90
2007-02-12 13:00:00,-16.56
2007-02-12 16:00:00,-13.91
2007-02-12 19:00:00,-13.05
2007-02-12 22:00:00,-13.24
2007-02-13 01:00:00,-12.75
2007-02-13 04:00:00,-12.58
2007-02-13 07:00:00,-12.83
2007-02-13 10:00:00,-16.41
2007-02-13 13:00:00,-20.25
2007-02-13 16:00:00,-18.66
2007-02-13 19:00:00,-18.90
2007-02-13 22:00:00,-16.88
2007-02-14 01:00:00,-17.29
2007-02-14 04:00:00,-16.71
2007-02-14 07:00:00,-22.04
2007-02-14 10:00:00,-13.88
2007-02-14 13:00:00,-17.85
2007-02-14 16:00:00,-19.19
2007-02-14 19:00:00,-15.95
2007-02-14 22:00:00,-17.04
2007-02-15 01:00:00,-18.57
2007-02-15 04:00:00,-21.91
2007-02-15 07:00:00,-19.19
2007-02-15 10:00:00,-17.81
2007-02-15 13:00:00,-15.90
2007-02-15 16:00:00,-17.70
2007-02-15 19:00:00,-15.19
2007-02-15 22:00:00,-11.82
2007-02-16 01:00:00,-12.89
2007-02-16 04:00:00,-13.20
2007-02-16 07:00:00,-12.91
2007-02-16 10:00:00,-16.42
2007-02-16 13:00:00,-14.62
2007-02-16 16:00:00,-13.70
2007-02-16 19:00:00,-12.99
2007-02-16 22:00:00,-15.35
2007-02-17 01:00:00,-11.36
2007-02-17 04:00:00,-1.07
2007-02-17 07:00:00,-3.61
2007-02-17 10:00:00,-1.75
2007-02-17 13:00:00,-2.99
2007-02-17 16:00:00,-2.95
2007-02-17 19:00:00,-5.60
2007-02-17 22:00:00,-14.64
2007-02-18 01:00:00,-13.49
2007-02-18 04:00:00,-14.22
2007-02-18 07:00:00,-14.86
2007-02-18 10:00:00,-13.04
2007-02-18 13:00:00,-16.38
2007-02-18 16:00:00,-16.42
2007-02-18 19:00:00,-19.96
2007-02-18 22:00:00,-20.93
2007-02-19 01:00:00,-14.89
2007-02-19 04:00:00,-14.73
2007-02-19 07:00:00,-16.75
2007-02-19 10:00:00,-14.24
2007-02-19 13:00:00,-14.55
2007-02-19 16:00:00,-15.10
2007-02-19 19:00:00,-16.70
2007-02-19 22:00:00,-15.85
2007-02-20 01:00:00,-16.05
2007-02-20 04:00:00,-17.13
2007-02-20 07:00:00,-16.72
2007-02-20 10:00:00,-16.75
2007-02-20 13:00:00,-17.70
2007-02-20 16:00:00,-17.64
2007-02-20 19:00:00,-18.08
2007-02-20 22:00:00,-18.53
2007-02-21 01:00:00,-18.92
2007-02-21 04:00:00,-19.08
2007-02-21 07:00:00,-17.86
2007-02-21 10:00:00,-17.65
2007-02-21 13:00:00,-16.39
2007-02-21 16:00:00,-16.76
2007-02-21 19:00:00,-16.55
2007-02-21 22:00:00,-16.67
2007-02-22 01:00:00,-18.20
2007-02-22 04:00:00,-19.52
2007-02-22 07:00:00,-20.88
2007-02-22 10:00:00,-18.08
2007-02-22 13:00:00,-20.56
2007-02-22 16:00:00,-23.16
2007-02-22 19:00:00,-19.93
2007-02-22 22:00:00,-19.54
2007-02-23 01:00:00,-22.39
2007-02-23 04:00:00,-18.41
2007-02-23 07:00:00,-17.90
2007-02-23 10:00:00,-18.70
2007-02-23 13:00:00,-19.81
2007-02-23 16:00:00,-18.94
2007-02-23 19:00:00,-19.11
2007-02-23 22:00:00,-18.08
2007-02-24 01:00:00,-18.53
2007-02-24 04:00:00,-18.20
2007-02-24 07:00:00,-18.04
2007-02-24 10:00:00,-15.97
2007-02-24 13:00:00,-17.63
2007-02-24 16:00:00,-15.21
2007-02-24 19:00:00,-16.25
2007-02-24 22:00:00,-13.24
2007-02-25 01:00:00,-15.19
2007-02-25 04:00:00,-13.82
2007-02-25 07:00:00,-10.41
2007-02-25 10:00:00,-10.58
2007-02-25 13:00:00,-10.90
2007-02-25 16:00:00,-12.46
2007-02-25 19:00:00,-11.80
2007-02-25 22:00:00,-11.04
2007-02-26 01:00:00,-9.07
2007-02-26 04:00:00,-7.99
2007-02-26 07:00:00,-7.74
2007-02-26 10:00:00,-5.02
2007-02-26 13:00:00,-7.20
2007-02-26 16:00:00,-8.29
2007-02-26 19:00:00,-9.15
2007-02-26 22:00:00,-8.20
2007-02-27 01:00:00,-10.18
2007-02-27 04:00:00,-15.97
2007-02-27 07:00:00,-13.43
2007-02-27 10:00:00,-11.73
2007-02-27 13:00:00,-12.28
2007-02-27 16:00:00,-13.91
2007-02-27 19:00:00,-12.54
2007-02-27 22:00:00,-11.78
2007-02-28 01:00:00,-15.20
2007-02-28 04:00:00,-15.97
2007-02-28 07:00:00,-10.57
2007-02-28 10:00:00,-8.52
2007-02-28 13:00:00,-10.50
2007-02-28 16:00:00,-12.09
2007-02-28 19:00:00,-13.04
2007-02-28 22:00:00,-13.42
2007-03-01 01:00:00,-13.91
2007-03-01 04:00:00,-14.07
2007-03-01 07:00:00,-13.31
2007-03-01 10:00:00,-10.77
2007-03-01 13:00:00,-12.29
2007-03-01 16:00:00,-11.70
2007-03-01 19:00:00,-10.02
2007-03-01 22:00:00,-8.94
2007-03-02 01:00:00,-8.04
2007-03-02 04:00:00,-4.64
2007-03-02 07:00:00,-5.85
2007-03-02 10:00:00,-6.41
2007-03-02 13:00:00,-7.60
2007-03-02 16:00:00,-8.12
2007-03-02 19:00:00,-8.82
2007-03-02 22:00:00,-7.25
2007-03-03 01:00:00,-5.27
2007-03-03 04:00:00,-6.05
2007-03-03 07:00:00,-5.68
2007-03-03 10:00:00,-6.35
2007-03-03 13:00:00,-6.38
2007-03-03 16:00:00,-7.09
2007-03-03 19:00:00,-7.46
2007-03-03 22:00:00,-12.65
2007-03-04 01:00:00,-12.46
2007-03-04 04:00:00,-13.08
2007-03-04 07:00:00,-15.58
2007-03-04 10:00:00,-8.66
2007-03-04 13:00:00,-10.73
2007-03-04 16:00:00,-13.62
2007-03-04 19:00:00,-9.99
2007-03-04 22:00:00,-9.23
2007-03-05 01:00:00,-10.23
2007-03-05 04:00:00,-10.04
2007-03-05 07:00:00,-9.05
2007-03-05 10:00:00,-9.94
2007-03-05 13:00:00,-13.01
2007-03-05 16:00:00,-9.97
2007-03-05 19:00:00,-13.82
2007-03-05 22:00:00,-12.91
2007-03-06 01:00:00,-12.00
2007-03-06 04:00:00,-15.64
2007-03-06 07:00:00,-17.42
2007-03-06 10:00:00,-11.24
2007-03-06 13:00:00,-10.77
2007-03-06 16:00:00,-12.52
2007-03-06 19:00:00,-10.23
2007-03-06 22:00:00,-10.93
2007-03-07 01:00:00,-14.48
2007-03-07 04:00:00,-11.00
2007-03-07 07:00:00,-9.88
2007-03-07 10:00:00,-8.75
2007-03-07 13:00:00,-6.72
2007-03-07 16:00:00,-8.37
2007-03-07 19:00:00,-8.26
2007-03-07 22:00:00,-8.82
2007-03-08 01:00:00,-7.25
2007-03-08 04:00:00,-8.47
2007-03-08 07:00:00,-7.00
2007-03-08 10:00:00,-6.05
2007-03-08 13:00:00,-7.55
2007-03-08 16:00:00,-9.75
2007-03-08 19:00:00,-9.92
2007-03-08 22:00:00,-6.38
2007-03-09 01:00:00,-5.10
2007-03-09 04:00:00,-8.25
2007-03-09 07:00:00,-4.60
2007-03-09 10:00:00,-4.88
2007-03-09 13:00:00,-5.81
2007-03-09 16:00:00,-7.67
2007-03-09 19:00:00,-8.87
2007-03-09 22:00:00,-8.98
2007-03-10 01:00:00,-12.71
2007-03-10 04:00:00,-6.34
2007-03-10 07:00:00,-4.90
2007-03-10 10:00:00,-2.05
2007-03-10 13:00:00,-4.68
2007-03-10 16:00:00,-8.02
2007-03-10 19:00:00,-9.94
2007-03-10 22:00:00,-9.94
2007-03-11 01:00:00,-4.76
2007-03-11 04:00:00,-7.95
2007-03-11 07:00:00,-6.59
2007-03-11 10:00:00,-4.20
2007-03-11 13:00:00,-7.49
2007-03-11 16:00:00,-6.23
2007-03-11 19:00:00,-6.95
2007-03-11 22:00:00,-0.79
2007-03-12 01:00:00,-2.37
2007-03-12 04:00:00,-2.74
2007-03-12 07:00:00,-1.27
2007-03-12 10:00:00,-1.15
2007-03-12 13:00:00,-2.29
2007-03-12 16:00:00,-2.33
2007-03-12 19:00:00,-5.54
2007-03-12 22:00:00,-3.97
2007-03-13 01:00:00,-4.44
2007-03-13 04:00:00,-4.60
2007-03-13 07:00:00,-2.58
2007-03-13 10:00:00,-1.55
2007-03-13 13:00:00,-0.81
2007-03-13 16:00:00,-0.82
2007-03-13 19:00:00,-1.37
2007-03-13 22:00:00,-1.83
2007-03-14 01:00:00,-2.04
2007-03-14 04:00:00,-1.66
2007-03-14 07:00:00,-2.17
2007-03-14 10:00:00,-3.84
2007-03-14 13:00:00,-3.92
2007-03-14 16:00:00,-4.64
2007-03-14 19:00:00,-2.98
2007-03-14 22:00:00,-4.58
2007-03-15 01:00:00,-5.84
2007-03-15 04:00:00,-1.20
2007-03-15 07:00:00,-1.09
2007-03-15 10:00:00,-1.46
2007-03-15 13:00:00,-2.91
2007-03-15 16:00:00,-3.39
2007-03-15 19:00:00,1.30
2007-03-15 22:00:00,0.46
2007-03-16 01:00:00,-3.14
2007-03-16 04:00:00,-3.63
2007-03-16 07:00:00,-3.48
2007-03-16 10:00:00,-4.15
2007-03-16 13:00:00,-4.36
2007-03-16 16:00:00,-5.59
2007-03-16 19:00:00,-6.01
2007-03-16 22:00:00,-6.30
2007-03-17 01:00:00,-8.32
2007-03-17 04:00:00,-10.14
2007-03-17 07:00:00,-8.79
2007-03-17 10:00:00,-6.81
2007-03-17 13:00:00,-6.64
2007-03-17 16:00:00,-7.29
2007-03-17 19:00:00,-8.00
2007-03-17 22:00:00,-10.02
2007-03-18 01:00:00,-8.94
2007-03-18 04:00:00,-11.86
2007-03-18 07:00:00,-9.08
2007-03-18 10:00:00,-9.73
2007-03-18 13:00:00,-10.72
2007-03-18 16:00:00,-12.35
2007-03-18 19:00:00,-10.10
2007-03-18 22:00:00,-9.73
2007-03-19 01:00:00,-9.11
2007-03-19 04:00:00,-9.78
2007-03-19 07:00:00,-7.27
2007-03-19 10:00:00,-6.47
2007-03-19 13:00:00,-7.01
2007-03-19 16:00:00,-7.13
2007-03-19 19:00:00,-6.79
2007-03-19 22:00:00,-6.84
2007-03-20 01:00:00,-8.99
2007-03-20 04:00:00,-10.76
2007-03-20 07:00:00,-7.75
2007-03-20 10:00:00,-3.58
2007-03-20 13:00:00,-4.10
2007-03-20 16:00:00,-4.52
2007-03-20 19:00:00,-5.64
2007-03-20 22:00:00,-5.55
2007-03-21 01:00:00,-8.37
2007-03-21 04:00:00,-9.32
2007-03-21 07:00:00,-7.46
2007-03-21 10:00:00,-8.22
2007-03-21 13:00:00,-8.23
2007-03-21 16:00:00,-8.33
2007-03-21 19:00:00,-8.16
2007-03-21 22:00:00,-6.46
2007-03-22 01:00:00,-6.71
2007-03-22 04:00:00,-7.08
2007-03-22 07:00:00,-6.14
2007-03-22 10:00:00,-0.88
2007-03-22 13:00:00,-2.44
2007-03-22 16:00:00,-2.29
2007-03-22 19:00:00,-3.69
2007-03-22 22:00:00,-4.13
2007-03-23 01:00:00,-3.63
2007-03-23 04:00:00,-3.30
2007-03-23 07:00:00,-0.45
2007-03-23 10:00:00,-1.64
2007-03-23 13:00:00,-4.08
2007-03-23 16:00:00,-2.61
2007-03-23 19:00:00,1.03
2007-03-23 22:00:00,1.28
2007-03-24 01:00:00,6.34
2007-03-24 04:00:00,6.84
2007-03-24 07:00:00,6.83
2007-03-24 10:00:00,3.92
2007-03-24 13:00:00,3.50
2007-03-24 16:00:00,1.57
2007-03-24 19:00:00,1.55
2007-03-24 22:00:00,1.94
2007-03-25 01:00:00,2.21
2007-03-25 04:00:00,1.73
2007-03-25 07:00:00,3.48
2007-03-25 10:00:00,4.00
2007-03-25 13:00:00,2.53
2007-03-25 16:00:00,2.60
2007-03-25 19:00:00,1.36
2007-03-25 22:00:00,0.93
2007-03-26 01:00:00,0.97
2007-03-26 04:00:00,2.07
2007-03-26 07:00:00,1.42
2007-03-26 10:00:00,2.27
2007-03-26 13:00:00,3.11
2007-03-26 16:00:00,2.52
2007-03-26 19:00:00,3.72
2007-03-26 22:00:00,3.83
2007-03-27 01:00:00,3.97
2007-03-27 04:00:00,1.77
2007-03-27 07:00:00,3.05
2007-03-27 10:00:00,5.06
2007-03-27 13:00:00,4.25
2007-03-27 16:00:00,2.87
2007-03-27 19:00:00,2.90
2007-03-27 22:00:00,1.94
2007-03-28 01:00:00,1.40
2007-03-28 04:00:00,0.64
2007-03-28 07:00:00,1.84
2007-03-28 10:00:00,3.42
2007-03-28 13:00:00,2.63
2007-03-28 16:00:00,2.67
2007-03-28 19:00:00,0.95
2007-03-28 22:00:00,0.04
2007-03-29 01:00:00,-0.36
2007-03-29 04:00:00,0.01
2007-03-29 07:00:00,1.27
2007-03-29 10:00:00,0.01
2007-03-29 13:00:00,-0.22
2007-03-29 16:00:00,-1.25
2007-03-29 19:00:00,-4.52
2007-03-29 22:00:00,-5.39
2007-03-30 01:00:00,-5.84
2007-03-30 04:00:00,-4.97
2007-03-30 07:00:00,-4.44
2007-03-30 10:00:00,-5.02
2007-03-30 13:00:00,-5.31
2007-03-30 16:00:00,-7.35
2007-03-30 19:00:00,-7.33
2007-03-30 22:00:00,-7.66
2007-03-31 01:00:00,-7.10
2007-03-31 04:00:00,-5.88
2007-03-31 07:00:00,-4.85
2007-03-31 10:00:00,-3.38
2007-03-31 13:00:00,-2.50
2007-03-31 16:00:00,-1.44
2007-03-31 19:00:00,-1.71
2007-03-31 22:00:00,0.24
2007-04-01 01:00:00,0.47
2007-04-01 04:00:00,1.32
2007-04-01 07:00:00,1.31
2007-04-01 10:00:00,0.71
2007-04-01 13:00:00,2.51
2007-04-01 16:00:00,0.42
2007-04-01 19:00:00,-0.01
2007-04-01 22:00:00,-1.65
2007-04-02 01:00:00,-2.58
2007-04-02 04:00:00,-4.48
2007-04-02 07:00:00,-2.59
2007-04-02 10:00:00,-3.16
2007-04-02 13:00:00,-3.37
2007-04-02 16:00:00,-5.79
2007-04-02 19:00:00,-7.17
2007-04-02 22:00:00,-10.13
2007-04-03 01:00:00,-10.74
2007-04-03 04:00:00,-10.31
2007-04-03 07:00:00,-9.86
2007-04-03 10:00:00,-9.65
2007-04-03 13:00:00,-9.70
2007-04-03 16:00:00,-9.90
2007-04-03 19:00:00,-10.16
2007-04-03 22:00:00,-8.99
2007-04-04 01:00:00,-8.87
2007-04-04 04:00:00,-2.85
2007-04-04 07:00:00,-1.58
2007-04-04 10:00:00,-2.83
2007-04-04 13:00:00,-3.55
2007-04-04 16:00:00,-5.93
2007-04-04 19:00:00,-8.99
2007-04-04 22:00:00,-8.59
2007-04-05 01:00:00,-7.58
2007-04-05 04:00:00,-5.96
2007-04-05 07:00:00,-4.99
2007-04-05 10:00:00,-4.58
2007-04-05 13:00:00,-4.24
2007-04-05 16:00:00,-5.22
2007-04-05 19:00:00,-5.99
2007-04-05 22:00:00,-10.02
2007-04-06 01:00:00,-11.86
2007-04-06 04:00:00,-11.43
2007-04-06 07:00:00,-11.01
2007-04-06 10:00:00,-10.64
2007-04-06 13:00:00,-11.82
2007-04-06 16:00:00,-11.63
2007-04-06 19:00:00,-10.14
2007-04-06 22:00:00,-8.28
2007-04-07 01:00:00,-7.31
2007-04-07 04:00:00,-7.58
2007-04-07 07:00:00,-7.18
2007-04-07 10:00:00,-8.72
2007-04-07 13:00:00,-9.41
2007-04-07 16:00:00,-9.65
2007-04-07 19:00:00,-9.69
2007-04-07 22:00:00,-9.53
2007-04-08 01:00:00,-8.99
2007-04-08 04:00:00,-9.34
2007-04-08 07:00:00,-9.34
2007-04-08 10:00:00,-8.53
2007-04-08 13:00:00,-9.16
2007-04-08 16:00:00,-10.13
2007-04-08 19:00:00,-13.36
2007-04-08 22:00:00,-10.98
2007-04-09 01:00:00,-13.31
2007-04-09 04:00:00,-13.24
2007-04-09 07:00:00,-9.53
2007-04-09 10:00:00,NaN
2007-04-09 13:00:00,NaN
2007-04-09 16:00:00,NaN
2007-04-09 19:00:00,NaN
2007-04-09 22:00:00,NaN
2007-04-10 01:00:00,NaN
2007-04-10 04:00:00,NaN
2007-04-10 07:00:00,NaN
2007-04-10 10:00:00,-7.35
2007-04-10 13:00:00,-8.05
2007-04-10 16:00:00,-7.40
2007-04-10 19:00:00,-6.84
2007-04-10 22:00:00,-5.49
2007-04-11 01:00:00,-5.43
2007-04-11 04:00:00,-5.85
2007-04-11 07:00:00,-5.82
2007-04-11 10:00:00,-5.51
2007-04-11 13:00:00,-4.61
2007-04-11 16:00:00,-3.75
2007-04-11 19:00:00,-3.24
2007-04-11 22:00:00,-4.15
2007-04-12 01:00:00,-4.61
2007-04-12 04:00:00,-4.94
2007-04-12 07:00:00,-4.60
2007-04-12 10:00:00,-2.52
2007-04-12 13:00:00,-2.76
2007-04-12 16:00:00,-0.11
2007-04-12 19:00:00,-1.98
2007-04-12 22:00:00,-2.00
2007-04-13 01:00:00,0.72
2007-04-13 04:00:00,1.32
2007-04-13 07:00:00,2.60
2007-04-13 10:00:00,2.41
2007-04-13 13:00:00,0.50
2007-04-13 16:00:00,-0.22
2007-04-13 19:00:00,-0.11
2007-04-13 22:00:00,-0.26
2007-04-14 01:00:00,0.70
2007-04-14 04:00:00,0.80
2007-04-14 07:00:00,3.35
2007-04-14 10:00:00,4.99
2007-04-14 13:00:00,4.71
2007-04-14 16:00:00,3.94
2007-04-14 19:00:00,3.30
2007-04-14 22:00:00,2.62
2007-04-15 01:00:00,3.83
2007-04-15 04:00:00,2.06
2007-04-15 07:00:00,1.71
2007-04-15 10:00:00,1.51
2007-04-15 13:00:00,1.40
2007-04-15 16:00:00,0.86
2007-04-15 19:00:00,3.39
2007-04-15 22:00:00,4.51
2007-04-16 01:00:00,4.93
2007-04-16 04:00:00,4.78
2007-04-16 07:00:00,4.84
2007-04-16 10:00:00,4.23
2007-04-16 13:00:00,1.17
2007-04-16 16:00:00,-1.13
2007-04-16 19:00:00,-1.13
2007-04-16 22:00:00,-1.58
2007-04-17 01:00:00,-2.93
2007-04-17 04:00:00,-3.55
2007-04-17 07:00:00,-4.05
2007-04-17 10:00:00,-3.94
2007-04-17 13:00:00,-4.64
2007-04-17 16:00:00,-5.55
2007-04-17 19:00:00,-6.84
2007-04-17 22:00:00,-8.33
2007-04-18 01:00:00,-10.97
2007-04-18 04:00:00,-10.66
2007-04-18 07:00:00,-10.97
2007-04-18 10:00:00,-1.37
2007-04-18 13:00:00,-5.30
2007-04-18 16:00:00,-5.60
2007-04-18 19:00:00,-8.58
2007-04-18 22:00:00,-10.48
2007-04-19 01:00:00,-11.84
2007-04-19 04:00:00,-12.50
2007-04-19 07:00:00,-8.94
2007-04-19 10:00:00,-7.75
2007-04-19 13:00:00,-7.07
2007-04-19 16:00:00,-5.36
2007-04-19 19:00:00,-5.89
2007-04-19 22:00:00,-9.13
2007-04-20 01:00:00,-9.48
2007-04-20 04:00:00,-7.91
2007-04-20 07:00:00,-5.45
2007-04-20 10:00:00,-4.90
2007-04-20 13:00:00,-4.74
2007-04-20 16:00:00,-6.46
2007-04-20 19:00:00,-7.87
2007-04-20 22:00:00,-8.34
2007-04-21 01:00:00,-8.86
2007-04-21 04:00:00,-9.28
2007-04-21 07:00:00,-8.37
2007-04-21 10:00:00,-7.52
2007-04-21 13:00:00,-5.41
2007-04-21 16:00:00,-5.84
2007-04-21 19:00:00,-5.67
2007-04-21 22:00:00,-5.32
2007-04-22 01:00:00,-4.89
2007-04-22 04:00:00,-6.13
2007-04-22 07:00:00,-1.86
2007-04-22 10:00:00,0.33
2007-04-22 13:00:00,-2.45
2007-04-22 16:00:00,-3.08
2007-04-22 19:00:00,-5.79
2007-04-22 22:00:00,-4.40
2007-04-23 01:00:00,-4.89
2007-04-23 04:00:00,-4.96
2007-04-23 07:00:00,-3.36
2007-04-23 10:00:00,-2.09
2007-04-23 13:00:00,-0.78
2007-04-23 16:00:00,-0.15
2007-04-23 19:00:00,-3.21
2007-04-23 22:00:00,-3.57
2007-04-24 01:00:00,-5.41
2007-04-24 04:00:00,-5.02
2007-04-24 07:00:00,-3.91
2007-04-24 10:00:00,-2.13
2007-04-24 13:00:00,-1.29
2007-04-24 16:00:00,-1.53
2007-04-24 19:00:00,-1.06
2007-04-24 22:00:00,-0.57
2007-04-25 01:00:00,5.10